Regional Weather Roundup
Issued by NWS

Home | Current Version | Previous Version | Graphics & Text | Print | Product List | Glossary On
Versions: 1 2 3 4 5 6 7 8 9 10 11 12 13 14 15 16 17 18 19 20 21 22 23 24 25 26 27 28 29 30 31 32 33 34 35 36 37 38 39 40 41 42 43 44 45 46 47 48 49 50
000
ASUS43 KLSX 220157
RWRMO

WEATHER SUMMARY FOR MISSOURI
NATIONAL WEATHER SERVICE SPRINGFIELD MO
900 PM CDT SAT OCT 21 2017

NOTE: "FAIR" INDICATES FEW OR NO CLOUDS BELOW 12,000 FEET WITH NO
       SIGNIFICANT WEATHER AND/OR OBSTRUCTIONS TO VISIBILITY.
       CURRENT SKY AND/OR WEATHER CONDITIONS ARE NOT AVAILABLE FOR
       CHILLICOTHE AND FARMINGTON.

MOZ001>031-035>038-043-044-053-054-220300-
...NORTHERN AND WESTERN MISSOURI...

CITY           SKY/WX    TMP DP  RH WIND       PRES   REMARKS
KANSAS CTY INT TSTM      60  59  96 NW18G26   29.90R FOG
KANSAS C DTWN  TSTM      63  62  97 W12G18    29.87R FOG
LEE`S SUMMIT   CLOUDY    68  58  70 W17G23    29.87R
ST JOSEPH      RAIN      56  55  97 NW7       29.91R FOG
CHILLICOTHE      N/A     63  58  83 VRB3      29.88R

$$
MOZ066>068-077>081-088>096-101>105-220300-
...SOUTHWEST MISSOURI...

CITY           SKY/WX    TMP DP  RH WIND       PRES   REMARKS
SPRINGFIELD    MOCLDY    71  66  84 S16       29.91S
JOPLIN         CLOUDY    73  65  75 SE9       29.86R
BRANSON        CLOUDY    68  64  88 SE12      29.95S

$$
MOZ032>034-039>042-045>050-055>058-069>072-220300-
...CENTRAL MISSOURI...

CITY           SKY/WX    TMP DP  RH WIND       PRES   REMARKS
COLUMBIA       NOT AVBL
JEFFERSON CITY MOCLDY    74  63  68 SE9       29.92R
ROLLA          CLEAR     69  64  84 SE9       29.95S
SEDALIA        CLOUDY    74  66  76 S17G23    29.88S
WARRENSBURG    CLOUDY    72  61  68 SE8       29.85R

$$
MOZ051-052-059>065-220300-
...EAST CENTRAL MISSOURI...

CITY           SKY/WX    TMP DP  RH WIND       PRES   REMARKS
ST LOUIS INTL  PTCLDY    75  60  59 SE17G25   29.96F

$$
MOZ072>076-082>087-097>100-106>115-220300-
...SOUTH CENTRAL AND SOUTHEAST MISSOURI...

CITY           SKY/WX    TMP DP  RH WIND       PRES   REMARKS
CAPE GIRARDEAU CLEAR     70  60  70 SE12      30.05S
POPLAR BLUFF   MOCLDY    73  61  65 S9        30.03R
WEST PLAINS    CLEAR     71  64  78 SE13      29.98F

$$



USA.gov is the U.S. government's official web portal to all federal, state and local government web resources and services.